Change the Weather History Date:

Sunday, November 18, 2012

  Actual Average Record
Temperature  
Mean Temperature 64 °F -  
Max Temperature 68 °F 62 °F 73 °F (2003)
Min Temperature 59 °F 52 °F 48 °F (2007)
Degree Days  
Heating Degree Days 2    
Growing Degree Days 14 (Base 50)    
Moisture  
Dew Point 59 °F    
Average Humidity 83    
Maximum Humidity 94    
Minimum Humidity 68    
Precipitation  
Precipitation 0.00 in - - ()
Sea Level Pressure  
Sea Level Pressure 29.89 in    
Wind  
Wind Speed 5 mph ()    
Max Wind Speed 16 mph    
Max Gust Speed 26 mph    
Visibility 6.2 miles    
Events Rain , Thunderstorm    
Averages and records for this station are not official NWS values.
T = Trace of Precipitation, MM = Missing Value Source: Averaged Metar Reports

Daily Weather History Graph

Daily Weather History Graph

Search for Another Location

Airport or City:

Trip Planner

Search our weather history database for the weather conditions in past years. The results will help you decide how hot, cold, wet, or windy it might be!

Date:

Astronomy

Nov. 18, 2012 Rise Set
Actual Time 6:41 AM CET 4:43 PM CET
Civil Twilight 6:13 AM CET 5:11 PM CET
Nautical Twilight 5:41 AM CET 5:43 PM CET
Astronomical Twilight 5:10 AM CET 6:14 PM CET
Moon 10:57 AM CET (11/18) 9:41 PM CET (11/18)
Length of Visible Light 10h 58m
Length of Day
10h 01m
Waxing Crescent, 27% of the Moon is Illuminated
Nov 18
Waxing Crescent
Nov 20
First Quarter
Nov 28
Full
Dec 6
Last Quarter
Dec 13
New

Hourly Weather History & Observations

Time (CET) Temp. Dew Point Humidity Pressure Visibility Wind Dir Wind Speed Gust Speed Precip Events Conditions
12:50 AM 62.6 °F 59.0 °F 88% 29.92 in 6.2 mi ESE 5.8 mph - N/A   Scattered Clouds
1:50 AM 62.6 °F 59.0 °F 88% 29.92 in 6.2 mi East 4.6 mph - N/A   Light Drizzle
2:50 AM 60.8 °F 57.2 °F 88% 29.92 in 6.2 mi Variable 1.2 mph - N/A   Scattered Clouds
3:50 AM 62.6 °F 59.0 °F 88% 29.92 in 6.2 mi Variable 1.2 mph - N/A   Scattered Clouds
4:50 AM 62.6 °F 59.0 °F 88% 29.89 in 6.2 mi SE 5.8 mph - N/A   Scattered Clouds
5:50 AM 60.8 °F 59.0 °F 94% 29.89 in 6.2 mi ESE 3.5 mph - N/A   Scattered Clouds
6:50 AM 59.0 °F 57.2 °F 94% 29.92 in 6.2 mi Variable 2.3 mph - N/A   Scattered Clouds
7:50 AM 60.8 °F 59.0 °F 94% 29.92 in 6.2 mi NNE 2.3 mph - N/A   Scattered Clouds
8:50 AM 64.4 °F 60.8 °F 88% 29.89 in 6.2 mi Variable 2.3 mph - N/A   Scattered Clouds
9:50 AM 68.0 °F 57.2 °F 68% 29.89 in 6.2 mi South 6.9 mph - N/A   Scattered Clouds
10:50 AM 64.4 °F 60.8 °F 88% 29.92 in 6.2 mi WSW 12.7 mph 26.5 mph N/A   Mostly Cloudy
11:35 AM 64.4 °F 60.8 °F 88% 29.89 in 6.2 mi SW 12.7 mph - N/A Rain , Thunderstorm Light Thunderstorms and Rain
11:50 AM 64.4 °F 60.8 °F 88% 29.89 in 6.2 mi SSW 16.1 mph - N/A Rain Light Rain
12:50 PM 66.2 °F 62.6 °F 88% 29.89 in 6.2 mi SSW 2.3 mph - N/A   Scattered Clouds
1:50 PM 68.0 °F 60.8 °F 78% 29.86 in 6.2 mi SW 5.8 mph - N/A   Partly Cloudy
2:50 PM 68.0 °F 60.8 °F 78% 29.86 in 6.2 mi SSW 10.4 mph - N/A   Partly Cloudy
3:50 PM 66.2 °F 57.2 °F 73% 29.86 in 6.2 mi SSE 5.8 mph - N/A   Partly Cloudy
4:50 PM 66.2 °F 60.8 °F 83% 29.86 in 6.2 mi South 12.7 mph - N/A   Scattered Clouds
5:50 PM 66.2 °F 57.2 °F 73% 29.89 in 6.2 mi South 8.1 mph - N/A   Scattered Clouds
6:50 PM 66.2 °F 57.2 °F 73% 29.89 in 6.2 mi South 6.9 mph - N/A   Scattered Clouds
7:50 PM 64.4 °F 57.2 °F 77% 29.89 in 6.2 mi ESE 6.9 mph - N/A   Scattered Clouds
8:50 PM 64.4 °F 57.2 °F 77% 29.89 in 6.2 mi SSE 6.9 mph - N/A   Scattered Clouds
9:50 PM 64.4 °F 59.0 °F 83% 29.89 in 6.2 mi SSE 10.4 mph - N/A   Light Drizzle
10:50 PM 64.4 °F 57.2 °F 77% 29.89 in 6.2 mi SSE 10.4 mph - N/A   Light Drizzle
11:50 PM 62.6 °F 55.4 °F 77% 29.86 in 6.2 mi SE 9.2 mph - N/A   Drizzle